Time,TemperatureF,DewpointF,PressureIn,WindDirection,WindDirectionDegrees,WindSpeedMPH,WindSpeedGustMPH,Humidity,HourlyPrecipIn,Conditions,Clouds,dailyrainin,SoftwareType,DateUTC
2013-01-23 08:00:00,78.3,72.7,30.04,ESE,103,8.0,21.0,83,0.00,,,0.01,Wunderground v.1.15,2013-01-23 12:00:00,
2013-01-23 08:10:00,79.2,72.9,30.05,East,87,7.0,12.0,81,0.00,,,0.01,Wunderground v.1.15,2013-01-23 12:10:00,
2013-01-23 08:20:00,79.6,72.5,30.06,ESE,111,7.0,7.0,79,0.00,,,0.01,Wunderground v.1.15,2013-01-23 12:20:00,
2013-01-23 08:30:00,79.9,71.3,30.06,ESE,112,7.0,7.0,75,0.00,,,0.01,Wunderground v.1.15,2013-01-23 12:30:00,
2013-01-23 08:40:00,79.8,71.9,30.07,East,96,8.0,10.0,77,0.00,,,0.01,Wunderground v.1.15,2013-01-23 12:40:00,
2013-01-23 08:50:00,79.0,72.3,30.07,ESE,107,8.0,8.0,80,0.00,,,0.01,Wunderground v.1.15,2013-01-23 12:50:00,
2013-01-23 09:00:00,80.3,73.2,30.07,ESE,114,8.0,8.0,79,0.00,,,0.01,Wunderground v.1.15,2013-01-23 13:00:00,
2013-01-23 09:10:00,81.1,72.4,30.08,ESE,121,10.0,10.0,75,0.00,,,0.01,Wunderground v.1.15,2013-01-23 13:10:00,
2013-01-23 09:20:00,81.1,72.8,30.08,East,97,10.0,17.0,76,0.00,,,0.01,Wunderground v.1.15,2013-01-23 13:20:00,
2013-01-23 09:30:00,81.2,73.3,30.08,ESE,118,10.0,17.0,77,0.00,,,0.01,Wunderground v.1.15,2013-01-23 13:30:00,
2013-01-23 09:40:00,81.4,72.3,30.08,ESE,103,9.0,9.0,74,0.00,,,0.01,Wunderground v.1.15,2013-01-23 13:40:00,
2013-01-23 09:50:00,80.9,71.8,30.08,NE,53,10.0,11.0,74,0.00,,,0.01,Wunderground v.1.15,2013-01-23 13:50:00,
2013-01-23 10:00:00,81.8,72.3,30.08,East,84,11.0,11.0,73,0.00,,,0.01,Wunderground v.1.15,2013-01-23 14:00:00,
2013-01-23 10:10:00,80.7,71.6,30.09,SE,134,11.0,11.0,74,0.00,,,0.01,Wunderground v.1.15,2013-01-23 14:10:00,
2013-01-23 10:20:00,80.3,73.2,30.09,East,86,12.0,12.0,79,0.00,,,0.01,Wunderground v.1.15,2013-01-23 14:20:00,
2013-01-23 10:30:00,79.6,71.8,30.09,ENE,70,11.0,11.0,77,0.00,,,0.01,Wunderground v.1.15,2013-01-23 14:30:00,
2013-01-23 10:40:00,79.4,71.2,30.08,ESE,105,12.0,12.0,76,0.00,,,0.01,Wunderground v.1.15,2013-01-23 14:40:00,
2013-01-23 10:50:00,79.9,70.9,30.08,SE,124,10.0,10.0,74,0.00,,,0.01,Wunderground v.1.15,2013-01-23 14:50:00,
2013-01-23 11:00:00,80.9,71.4,30.08,East,82,9.0,12.0,73,0.00,,,0.01,Wunderground v.1.15,2013-01-23 15:00:00,
2013-01-23 11:10:00,80.3,70.4,30.08,East,99,9.0,11.0,72,0.00,,,0.01,Wunderground v.1.15,2013-01-23 15:10:00,
2013-01-23 11:20:00,80.9,71.8,30.08,SE,146,7.0,13.0,74,0.00,,,0.01,Wunderground v.1.15,2013-01-23 15:20:00,
2013-01-23 11:30:00,81.1,72.4,30.08,ESE,115,7.0,10.0,75,0.00,,,0.01,Wunderground v.1.15,2013-01-23 15:30:00,
2013-01-23 13:40:00,83.0,71.8,30.02,ENE,61,12.0,18.0,69,0.00,,,0.01,Wunderground v.1.15,2013-01-23 17:40:00,
2013-01-23 13:50:00,83.6,71.5,30.02,ESE,113,11.0,11.0,67,0.00,,,0.01,Wunderground v.1.15,2013-01-23 17:50:00,
2013-01-23 14:00:00,83.2,72.0,30.02,ESE,117,11.0,13.0,69,0.00,,,0.01,Wunderground v.1.15,2013-01-23 18:00:00,
2013-01-23 14:10:00,83.4,71.3,30.01,SE,126,11.0,11.0,67,0.00,,,0.01,Wunderground v.1.15,2013-01-23 18:10:00,
2013-01-23 14:20:00,83.0,71.8,30.01,East,90,11.0,14.0,69,0.00,,,0.01,Wunderground v.1.15,2013-01-23 18:20:00,
2013-01-23 14:30:00,83.2,72.0,30.01,ESE,108,11.0,12.0,69,0.00,,,0.01,Wunderground v.1.15,2013-01-23 18:30:00,
2013-01-23 14:40:00,82.8,71.6,30.01,ENE,72,11.0,11.0,69,0.00,,,0.01,Wunderground v.1.15,2013-01-23 18:40:00,
2013-01-23 14:50:00,82.6,71.4,30.00,ESE,105,12.0,18.0,69,0.00,,,0.01,Wunderground v.1.15,2013-01-23 18:50:00,
2013-01-23 15:00:00,82.6,71.4,30.00,East,85,12.0,12.0,69,0.00,,,0.01,Wunderground v.1.15,2013-01-23 19:00:00,
2013-01-23 15:10:00,82.6,71.4,30.00,East,81,11.0,12.0,69,0.00,,,0.01,Wunderground v.1.15,2013-01-23 19:10:00,
2013-01-23 15:20:00,82.4,70.3,30.00,East,100,12.0,12.0,67,0.00,,,0.01,Wunderground v.1.15,2013-01-23 19:20:00,
2013-01-23 15:30:00,82.2,70.6,30.00,East,79,12.0,12.0,68,0.00,,,0.01,Wunderground v.1.15,2013-01-23 19:30:00,
2013-01-23 15:40:00,81.6,70.4,30.00,East,80,12.0,12.0,69,0.00,,,0.01,Wunderground v.1.15,2013-01-23 19:40:00,
2013-01-23 15:50:00,81.6,70.4,30.01,East,95,10.0,11.0,69,0.00,,,0.01,Wunderground v.1.15,2013-01-23 19:50:00,
2013-01-23 16:00:00,81.8,71.1,30.01,East,90,11.0,11.0,70,0.00,,,0.01,Wunderground v.1.15,2013-01-23 20:00:00,
2013-01-23 16:10:00,81.2,70.9,30.01,SE,132,12.0,12.0,71,0.00,,,0.01,Wunderground v.1.15,2013-01-23 20:10:00,
2013-01-23 16:20:00,80.7,70.8,30.01,East,90,10.0,13.0,72,0.00,,,0.01,Wunderground v.1.15,2013-01-23 20:20:00,
2013-01-23 16:30:00,80.7,71.2,30.01,ESE,119,10.0,13.0,73,0.00,,,0.01,Wunderground v.1.15,2013-01-23 20:30:00,
2013-01-23 16:40:00,80.3,70.4,30.01,ESE,114,11.0,18.0,72,0.00,,,0.01,Wunderground v.1.15,2013-01-23 20:40:00,
2013-01-23 16:50:00,80.1,70.7,30.01,ENE,72,11.0,11.0,73,0.00,,,0.01,Wunderground v.1.15,2013-01-23 20:50:00,
2013-01-23 17:00:00,79.6,70.6,30.01,SE,142,11.0,11.0,74,0.00,,,0.01,Wunderground v.1.15,2013-01-23 21:00:00,
2013-01-23 17:10:00,79.6,70.6,30.01,East,92,9.0,9.0,74,0.00,,,0.01,Wunderground v.1.15,2013-01-23 21:10:00,
2013-01-23 17:20:00,79.6,70.6,30.01,East,81,9.0,9.0,74,0.00,,,0.01,Wunderground v.1.15,2013-01-23 21:20:00,
2013-01-23 17:30:00,79.0,70.0,30.01,NE,49,11.0,11.0,74,0.00,,,0.01,Wunderground v.1.15,2013-01-23 21:30:00,
2013-01-23 17:40:00,78.5,69.5,30.01,ESE,115,11.0,12.0,74,0.00,,,0.01,Wunderground v.1.15,2013-01-23 21:40:00,
2013-01-23 17:50:00,78.5,69.9,30.01,East,80,8.0,15.0,75,0.00,,,0.01,Wunderground v.1.15,2013-01-23 21:50:00,
2013-01-23 18:00:00,78.1,69.5,30.01,ESE,113,9.0,9.0,75,0.00,,,0.01,Wunderground v.1.15,2013-01-23 22:00:00,
2013-01-23 18:10:00,77.9,69.3,30.01,East,86,11.0,12.0,75,0.00,,,0.01,Wunderground v.1.15,2013-01-23 22:10:00,
2013-01-23 18:20:00,77.7,68.7,30.01,East,89,10.0,10.0,74,0.00,,,0.01,Wunderground v.1.15,2013-01-23 22:20:00,
2013-01-23 18:30:00,77.7,69.1,30.01,East,85,9.0,10.0,75,0.00,,,0.01,Wunderground v.1.15,2013-01-23 22:30:00,
2013-01-23 18:40:00,77.7,69.5,30.01,ENE,74,9.0,9.0,76,0.00,,,0.01,Wunderground v.1.15,2013-01-23 22:40:00,
2013-01-23 18:50:00,77.4,69.2,30.01,East,86,9.0,10.0,76,0.00,,,0.01,Wunderground v.1.15,2013-01-23 22:50:00,
2013-01-23 19:00:00,77.4,69.2,30.01,ENE,67,9.0,9.0,76,0.00,,,0.01,Wunderground v.1.15,2013-01-23 23:00:00,
2013-01-23 19:10:00,77.4,69.6,30.02,SSE,153,10.0,10.0,77,0.00,,,0.01,Wunderground v.1.15,2013-01-23 23:10:00,
2013-01-23 19:20:00,77.6,70.2,30.02,ESE,123,9.0,10.0,78,0.00,,,0.01,Wunderground v.1.15,2013-01-23 23:20:00,
2013-01-23 19:30:00,77.4,69.6,30.02,ENE,74,10.0,10.0,77,0.00,,,0.01,Wunderground v.1.15,2013-01-23 23:30:00,
2013-01-23 19:40:00,77.2,69.8,30.03,ENE,66,8.0,10.0,78,0.00,,,0.01,Wunderground v.1.15,2013-01-23 23:40:00,
2013-01-23 19:50:00,77.2,69.4,30.03,ENE,66,9.0,12.0,77,0.00,,,0.01,Wunderground v.1.15,2013-01-23 23:50:00,
2013-01-23 20:00:00,77.4,69.2,30.03,East,79,11.0,11.0,76,0.00,,,0.01,Wunderground v.1.15,2013-01-24 00:00:00,